Weather History for Leite Lopes, Brazil

Change the Weather History Date:

Monday, December 10, 2012

  Actual Average Record
Temperature  
Mean Temperature 81 °F -  
Max Temperature 93 °F - - ()
Min Temperature 69 °F - - ()
Cooling Degree Days 16    
Growing Degree Days 31 (Base 50)    
Moisture  
Dew Point 70 °F    
Average Humidity 75    
Maximum Humidity 100    
Minimum Humidity 46    
Precipitation  
Precipitation 0.00 in - - ()
Sea Level Pressure  
Sea Level Pressure 29.83 in    
Wind  
Wind Speed 4 mph ()    
Max Wind Speed 10 mph    
Max Gust Speed -    
Visibility 6.1 miles    
Events Rain    
T = Trace of Precipitation, MM = Missing Value Source: Averaged Metar Reports

Daily Weather History Graph

Daily Weather History Graph

Search for Another Location

Airport:

Trip Planner

Search our weather history database for the weather conditions in past years. The results will help you decide how hot, cold, wet, or windy it might be!

Date:

Astronomy

Dec. 10, 2012 Rise Set
Actual Time 6:22 AM BRST 7:46 PM BRST
Civil Twilight 5:57 AM BRST 8:10 PM BRST
Nautical Twilight 5:28 AM BRST 8:40 PM BRST
Astronomical Twilight 4:57 AM BRST 9:10 PM BRST
Moon 3:38 AM BRST (12/10) 4:58 PM BRST (12/10)
Length of Visible Light 14h 13m
Length of Day
13h 23m
Waning Crescent, 11% of the Moon is Illuminated
Dec 10
Waning Crescent
Dec 13
New
Dec 20
First Quarter
Dec 28
Full
Jan 5
Last Quarter

Hourly Weather History & Observations

Time (BRST) Temp. Heat Index Dew Point Humidity Pressure Visibility Wind Dir Wind Speed Gust Speed Precip Events Conditions
12:00 AM 71.6 °F - 68.0 °F 88% 29.95 in 5.6 mi SE 10.4 mph - N/A Rain Light Rain
1:00 AM 69.8 °F - 68.0 °F 94% 29.92 in 6.2 mi East 3.5 mph - N/A Rain Light Rain
2:00 AM 69.8 °F - 69.8 °F 100% 29.92 in 6.2 mi SE 5.8 mph - N/A   Overcast
3:00 AM 69.8 °F - 68.0 °F 94% 29.89 in - ESE 4.6 mph - N/A   Clear
4:00 AM 69.8 °F - 68.0 °F 94% 29.86 in - NNW 2.3 mph - N/A   Clear
5:00 AM 69.8 °F - 69.8 °F 100% 29.86 in - Calm Calm - N/A   Clear
6:00 AM 69.8 °F - 68.0 °F 94% 29.83 in - ESE 4.6 mph - N/A   Clear
7:00 AM 69.8 °F - 68.0 °F 94% 29.83 in 5.6 mi SE 4.6 mph - N/A   Unknown
8:00 AM 71.6 °F - 69.8 °F 94% 29.86 in - ESE 5.8 mph - N/A   Clear
9:00 AM 75.2 °F - 71.6 °F 89% 29.89 in 6.2 mi East 4.6 mph - N/A   Scattered Clouds
10:00 AM 78.8 °F - 69.8 °F 74% 29.89 in - SE 3.5 mph - N/A   Clear
11:00 AM 86.0 °F 93.4 °F 73.4 °F 66% 29.89 in - ESE 3.5 mph - N/A   Clear
12:00 PM 86.0 °F 93.4 °F 73.4 °F 66% 29.86 in - North 3.5 mph - N/A   Clear
1:00 PM 87.8 °F 93.8 °F 71.6 °F 58% 29.86 in 6.2 mi NW 3.5 mph - N/A   Scattered Clouds
2:00 PM 91.4 °F 98.4 °F 71.6 °F 52% 29.83 in 6.2 mi NW 4.6 mph - N/A   Scattered Clouds
3:00 PM 89.6 °F 94.7 °F 69.8 °F 52% 29.77 in 6.2 mi NNE 9.2 mph - N/A   Mostly Cloudy
4:00 PM 93.2 °F 98.8 °F 69.8 °F 46% 29.74 in 6.2 mi North 6.9 mph - N/A   Mostly Cloudy
5:00 PM 89.6 °F 94.7 °F 69.8 °F 52% 29.71 in 6.2 mi North 4.6 mph - N/A   Scattered Clouds
6:00 PM 84.2 °F 92.3 °F 75.2 °F 74% 29.71 in 6.2 mi West 4.6 mph - N/A   Scattered Clouds
7:00 PM 89.6 °F 94.7 °F 69.8 °F 52% 29.71 in 6.2 mi Calm Calm - N/A   Partly Cloudy
8:00 PM 86.0 °F 91.8 °F 71.6 °F 62% 29.74 in 6.2 mi ENE 2.3 mph - N/A   Partly Cloudy
9:00 PM 84.2 °F 88.4 °F 69.8 °F 62% 29.77 in - NNE 2.3 mph - N/A   Clear
10:00 PM 80.6 °F 84.6 °F 71.6 °F 74% 29.80 in 6.2 mi East 2.3 mph - N/A   Unknown
11:00 PM 80.6 °F 85.4 °F 73.4 °F 79% 29.83 in - Calm Calm - N/A   Clear